GW4132 Weather Reports


Display with metric or nautical units.
time (UTC)temp
F
wind
direction
speed
MPH
gust
MPH
rain 1hr
in
rain 24hr
in
rain mn
in
humidity
%
barometer
mb
20260507204538 55 147 2.0 6.0 0.00 0.00 0.00 74 1022.0
20260507203036 53 167 2.0 5.0 0.00 0.00 0.00 76 1022.0
20260507201539 52 162 2.0 6.0 0.00 0.00 0.00 77 1022.1
20260507200038 52 352 1.0 4.0 0.00 0.00 0.00 76 1022.3
20260507194543 52 160 1.0 5.0 0.00 0.00 0.00 76 1022.3
20260507193043 51 53 0.0 5.0 0.00 0.00 0.00 79 1022.3
20260507191539 50 164 2.0 4.0 0.00 0.00 0.00 80 1022.4
20260507190038 49 125 2.0 5.0 0.00 0.00 0.00 81 1022.8
20260507184538 47 145 0.0 3.0 0.00 0.00 0.00 83 1022.6
20260507183034 47 150 1.0 3.0 0.00 0.00 0.00 83 1022.6
20260507181547 46 152 1.0 3.0 0.00 0.00 0.00 88 1022.7
20260507180046 46 62 0.0 3.0 0.00 0.00 0.00 85 1022.8
20260507174540 45 109 1.0 3.0 0.00 0.00 0.00 87 1022.7
20260507173039 45 157 0.0 3.0 0.00 0.00 0.00 88 1022.5
20260507171538 44 69 0.0 2.0 0.00 0.00 0.00 91 1022.5
20260507170035 43 42 0.0 3.0 0.00 0.00 0.00 92 1022.5
20260507164539 43 73 1.0 2.0 0.00 0.00 0.00 93 1022.6
20260507163038 43 40 0.0 3.0 0.00 0.00 0.00 93 1022.3
20260507161540 42 82 1.0 3.0 0.00 0.00 0.00 96 1022.4
20260507160040 42 73 2.0 5.0 0.00 0.00 0.00 96 1022.5
20260507154538 41 86 1.0 3.0 0.00 0.00 0.00 96 1022.3
20260507153038 41 84 0.0 2.0 0.00 0.00 0.00 96 1022.6
20260507151545 41 83 0.0 2.0 0.00 0.00 0.00 97 1022.6
20260507150041 41 71 1.0 3.0 0.00 0.00 0.00 97 1022.7
20260507144539 40 105 0.0 1.0 0.00 0.00 0.00 98 1022.7
20260507143036 40 105 0.0 2.0 0.00 0.00 0.00 97 1022.7
20260507141537 40 51 0.0 3.0 0.00 0.00 0.00 97 1022.8
20260507140047 40 69 0.0 3.0 0.00 0.00 0.00 97 1022.7
20260507134539 40 101 0.0 2.0 0.00 0.00 0.00 97 1022.6
20260507133039 41 65 1.0 3.0 0.00 0.00 0.00 96 1022.6
20260507131544 41 48 0.0 1.0 0.00 0.00 0.00 96 1022.5
20260507130039 41 48 0.0 1.0 0.00 0.00 0.00 95 1022.5
20260507124546 41 51 0.0 1.0 0.00 0.00 0.00 95 1022.5
20260507123043 41 38 0.0 1.0 0.00 0.00 0.00 95 1022.6
20260507121549 41 38 0.0 1.0 0.00 0.00 0.00 95 1022.8
20260507120051 40 38 0.0 2.0 0.00 0.00 0.00 95 1022.9
20260507114549 40 56 0.0 2.0 0.00 0.00 0.00 95 1023.1
20260507113044 40 51 0.0 1.0 0.00 0.00 0.00 95 1023.1
20260507111547 40 51 0.0 0.0 0.00 0.00 0.00 94 1023.3
20260507110051 40 51 0.0 0.0 0.00 0.00 0.00 92 1023.3
20260507104546 41 51 0.0 1.0 0.00 0.00 0.00 91 1023.2
20260507103047 41 51 0.0 1.0 0.00 0.00 0.00 91 1023.3
20260507101559 41 51 0.0 1.0 0.00 0.00 0.00 92 1023.6
20260507100045 41 59 0.0 1.0 0.00 0.00 0.00 92 1023.5
20260507094556 41 69 0.0 1.0 0.00 0.00 0.00 93 1023.5
20260507093042 41 51 0.0 1.0 0.00 0.00 0.00 93 1023.6
20260507091601 41 36 0.0 1.0 0.00 0.00 0.00 94 1023.6
20260507090107 41 53 0.0 2.0 0.00 0.00 0.00 94 1023.5
20260507084545 41 127 0.0 2.0 0.00 0.00 0.00 95 1023.6
20260507083043 41 44 0.0 1.0 0.00 0.00 0.00 95 1023.6
20260507081555 41 78 0.0 2.0 0.00 0.00 0.00 95 1023.6
20260507080055 41 345 0.0 2.0 0.00 0.00 0.00 95 1023.5
20260507074547 41 324 0.0 2.0 0.00 0.00 0.00 95 1023.5
20260507073057 41 54 1.0 3.0 0.00 0.00 0.00 95 1023.4
20260507071546 41 51 0.0 2.0 0.00 0.00 0.00 93 1023.5
20260507070134 42 49 0.0 2.0 0.00 0.00 0.00 93 1023.5
20260507064551 43 62 0.0 3.0 0.00 0.00 0.00 93 1023.5
20260507063046 43 29 0.0 1.0 0.00 0.00 0.00 93 1023.6
20260507061559 43 24 0.0 2.0 0.00 0.00 0.00 93 1023.6
20260507060108 43 38 0.0 1.0 0.00 0.00 0.00 93 1023.8
20260507054620 44 65 0.0 3.0 0.00 0.00 0.00 92 1023.8
20260507053056 44 74 0.0 2.0 0.00 0.00 0.00 92 1023.9
20260507051611 44 74 0.0 1.0 0.00 0.00 0.00 92 1023.8
20260507050103 44 79 0.0 0.0 0.00 0.00 0.00 91 1023.8
20260507044554 44 80 0.0 2.0 0.00 0.00 0.00 91 1023.8
20260507043058 44 63 0.0 2.0 0.00 0.00 0.00 91 1023.9
20260507041551 44 63 0.0 4.0 0.00 0.00 0.00 91 1023.8
20260507040111 44 238 0.0 3.0 0.00 0.00 0.00 91 1023.8
20260507034604 44 53 0.0 2.0 0.00 0.00 0.00 90 1023.6
20260507033055 45 55 0.0 3.0 0.00 0.00 0.00 91 1023.5
20260507031557 46 85 0.0 2.0 0.00 0.00 0.00 88 1023.3
20260507030114 46 46 0.0 3.0 0.00 0.00 0.00 87 1023.3
20260507024626 46 53 0.0 4.0 0.00 0.00 0.00 88 1023.4
20260507023054 47 56 1.0 3.0 0.00 0.00 0.00 87 1023.0
20260507021612 46 44 0.0 3.0 0.00 0.00 0.00 88 1023.1
20260507020105 47 69 1.0 5.0 0.00 0.00 0.00 87 1023.3
20260507014537 48 26 1.0 3.0 0.00 0.00 0.00 86 1023.2
20260507013032 48 35 1.0 5.0 0.00 0.00 0.00 86 1023.2
20260507011531 48 30 2.0 5.0 0.00 0.00 0.00 86 1023.1
20260507010030 49 69 1.0 5.0 0.00 0.00 0.00 85 1023.3
20260507004532 49 35 1.0 4.0 0.00 0.00 0.00 82 1023.2
20260507003029 51 259 1.0 8.0 0.00 0.00 0.00 80 1023.5
20260507001528 52 54 1.0 5.0 0.00 0.00 0.00 78 1023.1
20260507000030 51 89 0.0 5.0 0.00 0.00 0.00 79 1023.2
20260506234533 51 184 3.0 8.0 0.00 0.00 0.00 79 1023.1
20260506233030 51 350 1.0 5.0 0.00 0.00 0.00 81 1023.2
20260506231529 52 81 4.0 9.0 0.00 0.00 0.00 80 1023.0
20260506230029 53 299 1.0 9.0 0.00 0.00 0.00 80 1023.0
20260506224536 54 171 2.0 7.0 0.00 0.00 0.00 77 1023.3
20260506223037 55 195 2.0 6.0 0.00 0.00 0.00 76 1023.1
20260506221531 55 33 2.0 8.0 0.00 0.00 0.00 75 1023.2
20260506220038 55 136 2.0 5.0 0.00 0.00 0.00 79 1023.0
20260506214533 56 53 2.0 9.0 0.00 0.00 0.00 75 1023.1
20260506213036 55 43 2.0 6.0 0.00 0.00 0.00 79 1023.2
20260506211536 55 143 3.0 8.0 0.00 0.00 0.00 79 1023.2
20260506210034 56 5 2.0 6.0 0.00 0.00 0.00 79 1023.2